This is the latest recevied weather packets stored in our database for station/object F6BIJ-13. If no packets are shown the sender has not sent any weather packets the latest 10 day(s).
| Time | Temp. | Humidity | Pressure | Rain* | Wind** | Luminosity | Snow |
|---|---|---|---|---|---|---|---|
| 1778240197 | 22.22° C | 49% | 1014.5 hPa | 0 mm | - | - | - |
| 1778239837 | 21.11° C | 51% | 1014.5 hPa | 0 mm | - | - | - |
| 1778239477 | 21.67° C | 49% | 1014.6 hPa | 0 mm | - | - | - |
| 1778239117 | 21.11° C | 53% | 1014.6 hPa | 0 mm | - | - | - |
| 1778238757 | 20° C | 54% | 1014.7 hPa | 0 mm | - | - | - |
| 1778238397 | 21.11° C | 56% | 1014.8 hPa | 0 mm | - | - | - |
| 1778238037 | 20° C | 53% | 1014.9 hPa | 0 mm | - | - | - |
| 1778237677 | 21.11° C | 54% | 1014.9 hPa | 0 mm | - | - | - |
| 1778237317 | 21.11° C | 57% | 1015 hPa | 0 mm | - | - | - |
| 1778236957 | 20° C | 56% | 1015.1 hPa | 0 mm | - | - | - |
| 1778236597 | 20° C | 57% | 1015.2 hPa | 0 mm | - | - | - |
| 1778236237 | 20° C | 59% | 1015.3 hPa | 0 mm | - | - | - |
| 1778235877 | 20° C | 54% | 1015.3 hPa | 0 mm | - | - | - |
| 1778235517 | 20.56° C | 56% | 1015.3 hPa | 0 mm | - | - | - |
| 1778235157 | 20° C | 59% | 1015.3 hPa | 0 mm | - | - | - |
| 1778234797 | 18.89° C | 59% | 1015.4 hPa | 0 mm | - | - | - |
| 1778234437 | 19.44° C | 63% | 1015.5 hPa | 0 mm | - | - | - |
| 1778234078 | 20° C | 60% | 1015.6 hPa | 0 mm | - | - | - |
| 1778233717 | 19.44° C | 57% | 1015.5 hPa | 0 mm | - | - | - |
| 1778233357 | 19.44° C | 58% | 1015.7 hPa | 0 mm | - | - | - |
| 1778232997 | 19.44° C | 58% | 1015.7 hPa | 0 mm | - | - | - |
| 1778232637 | 17.78° C | 63% | 1015.8 hPa | 0 mm | - | - | - |
| 1778232276 | 18.89° C | 62% | 1015.8 hPa | 0 mm | - | - | - |
| 1778231917 | 17.22° C | 64% | 1015.8 hPa | 0 mm | - | - | - |
| 1778231557 | 17.22° C | 64% | 1015.8 hPa | 0 mm | - | - | - |
* Rain latest 24 hours (hover to see other rain measurements)
** Current wind speed in m/s (hover to see current wind gust speed)